Weather in Goy-Chu

Russia / Chechen Republic     43°03′38″N   45°36′22″E
temp.,
°C
wind,
m/s
gust,
m/s
humid.,
%
clouds,
%
prec.,
mm/h
press.,
hPa
HPBL,
m
25 january, mon
mon2500:00+1ssw214599 0.0 102025
03:00+1sw1146100 0.0 102023
06:00+1sw114398 0.0 102022
09:00+3ssw113999 0.0 102022
12:00+7nne114296 0.0 1019171
15:00+6ne115484 0.0 1018131
18:00+2s116531 0.0 102022
21:00+2ssw115716 0.0 101922
26 january, tue
tue2600:00+2ssw12500 0.0 101925
03:00+2sw22450 0.0 101829
06:00+2ssw2241100 0.0 101826
09:00+4sw1139100 0.0 101926
12:00+7n114299 0.0 1019182
15:00+6nne115249 0.0 1019186
18:00+3ssw11650 0.0 102122
21:00+2s11640 0.0 102122
27 january, wed
wed2700:00+2s115615 0.0 102122
03:00+2ssw11507 0.0 102023
06:00+2ssw12491 0.0 101924
09:00+4ssw114815 0.0 101834
12:00+7n114997 0.0 1015150
15:00+7nne115473 0.0 1013175
18:00+4sw125963 0.0 101330
21:00+4sw225681 0.0 101235
28 january, thu
thu2800:00+4ssw2254100 0.0 101140
03:00+4ssw2251100 0.0 100951
06:00+4ssw2250100 0.0 100839
09:00+6sw124889 0.0 100757
12:00+11sw164327 0.0 1006928
15:00+11n034338 0.0 1004433
18:00+7ssw22524 0.0 100536
21:00+6sw125552 0.0 100655
29 january, fri
fri2900:00+4wsw1171100 0.0 100734
03:00+2w117869 0.0 100822
06:00+1wsw138844 0.0 1008134
09:00+3wsw017943 0.0 1009138
12:00+5ene227582 0.0 1007505
15:00+6ene127382 0.0 1007506
18:00+3sse118379 0.0 100847
21:00+2n019375 0.0 101049